Location: Asheville, NC
(35.6000°N, 82.5500°W)
Time: 15:59:35
(UTC-04:00)

Vanguard 1 Rocket - Pass Details

Date: 16 December 2017
Orbit: 653 x 4224 km, 34.3° (Epoch: 22 June)

Event Time Altitude Azimuth Distance (km) Brightness Sun altitude
Rises 21:03:04 0° 281° (WNW) 5,499 12.1 -44.6°
Reaches altitude 10° 21:05:59 10° 280° (W) 4,854 11.7 -45.2°
Maximum altitude 21:21:26 72° 200° (SSW) 3,542 10.0 -48.4°
Enters shadow 21:23:25 69° 171° (S) 3,697 10.1 -48.8°
